CAPE
55 1 148 169 299 115 348 67 226 217 415 427 207 204 18 0 113 129 142 260 118 207 238 201 81 277 257 596 1100 1289 1553 2224 2236 1906 1760 1979 764 1317 1718 2234 3787 4072 2693 3516
84 94 95 95 78 101 79 64 56 124 98 40 220 272 53 0 10 167 120 16 17 49 299 261 243 240 36 304 1070 1692 1597 2292 2221 1769 2374 2615 2830 2034 1160 1431 1963 3369 2738 3508
0 0 29 30 28 48 13 48 79 44 70 2 296 111 185 0 0 51 74 91 9 22 7 95 97 49 30 557 1045 1484 2240 1926 2353 2463 2384 2869 2622 2943 2993 2865 2205 1418 3416 3121
37 106 140 51 257 228 116 97 265 226 120 516 44 991 116 71 0 2 13 5 26 6 8 35 0 0 3 566 719 1422 1736 2271 2383 2863 2276 3053 2234 2191 2337 2064 1855 2119 2820 3331
94 66 124 250 190 111 115 168 169 114 60 82 69 17 295 370 0 0 0 0 0 9 0 2 3 4 36 256 328 875 2007 2526 2944 2752 3413 2809 2640 1883 873 3371 3788 4171 4401 3764
179 112 10 79 122 97 91 261 129 87 28 125 174 149 372 396 157 0 0 0 0 0 0 40 45 80 60 148 230 599 2085 3168 3177 3579 3275 3756 2240 2709 2969 3171 3376 3186 3492 3786
112 71 44 46 160 73 66 70 13 7 48 89 28 86 241 235 244 174 13 0 0 0 0 0 14 56 108 213 343 903 2154 2733 2945 2761 2953 3082 3375 4028 3746 3220 2864 2398 3052 3024
153 0 3 14 40 124 153 38 82 0 0 62 190 284 181 34 41 544 69 13 0 0 1 0 13 55 294 482 539 740 2188 2874 2997 2965 3286 3285 3788 2883 2627 3524 2509 3019 3422 2622
0 19 0 18 6 105 123 118 34 1 2 30 0 160 178 194 90 174 168 66 303 84 2 107 44 128 226 181 692 812 2233 2753 2902 2501 3364 3934 3794 3386 2529 3626 3481 2560 3427 2668
0 10 5 35 27 19 61 52 60 75 135 88 51 52 278 351 331 323 234 230 112 147 57 120 78 113 133 53 213 388 1756 2037 2555 2611 3224 3378 3628 3713 3535 4330 4126 3935 4196 3927
0 0 1 43 35 70 88 217 84 64 51 65 13 30 324 308 633 488 267 265 244 206 128 257 334 170 192 180 329 311 1063 1706 1935 2438 3093 3318 3422 3643 3801 3392 4102 4131 3926 4372
0 0 0 6 20 26 192 72 193 30 59 34 44 218 74 302 464 533 493 418 458 425 440 382 458 531 255 442 68 1572 331 447 2270 3281 3879 3770 3647 3613 3101 3402 3646 4430 4453 4303
0 0 0 0 0 0 71 105 57 27 2 106 196 375 79 319 762 976 875 972 956 986 1098 507 275 117 436 1306 1880 1182 1080 308 852 3916 3442 3156 3381 3243 2939 3012 2990 3768 4631 4463
0 0 0 0 10 2 5 52 67 26 92 99 71 67 180 259 413 1217 1281 1258 1227 1081 1896 863 602 242 449 1623 3710 3621 2814 2932 3594 2568 3059 3301 3420 3119 2780 3078 3748 4084 4464 4107
0 0 0 0 0 14 41 49 62 133 56 78 60 14 75 16 568 1413 1235 1358 1445 1406 1285 1433 1415 1360 780 1972 4097 4141 3578 3481 3706 4440 4635 4276 4175 4021 4472 4358 4303 4469 3994 3429
0 0 0 0 0 7 21 15 0 0 8 19 35 35 172 404 721 1317 1194 1290 1547 1436 1168 1177 1368 1358 1365 2309 3898 4154 4384 4182 4388 3876 4307 4554 4792 4561 4696 4719 4265 3539 2549 3165
194 221 89 15 44 34 55 20 19 31 37 0 0 120 189 540 839 1144 1212 1136 1495 1477 1781 1373 1379 1442 1589 2518 3382 3937 4461 4588 4551 4911 4494 4722 4475 4595 4707 4248 4049 3688 3459 3528
45 103 153 260 278 38 58 57 70 83 14 4 7 422 250 118 622 1017 1186 1073 1706 1788 1838 2006 1525 2281 2918 2975 3178 3600 3158 4038 4183 4244 4416 4618 4723 4522 4266 3939 3676 3536 3538 2900
0 81 208 378 162 51 5 3 42 51 100 66 36 16 3 162 178 1238 1070 1065 1466 1504 1540 1491 1629 2096 3189 2487 3230 3344 3289 4348 4070 3430 3477 3593 3407 3442 3516 3394 3422 3109 2712 2337
2 69 273 482 152 54 321 209 48 4 40 158 292 102 58 485 292 1556 1132 1040 1033 920 1191 1617 1926 1568 1501 2215 1823 3050 2958 3229 3106 2976 3044 3068 3348 3180 3070 3147 2960 2872 2613 2319
156 423 510 338 236 38 0 5 0 160 232 44 63 51 53 113 687 1730 1246 1240 1094 1195 1645 1577 1360 1248 1573 1665 1442 2758 2790 3017 3137 2818 2630 3013 3014 3109 3043 2973 2942 2831 2442 2137
212 271 488 849 627 317 157 37 34 322 57 55 223 629 521 635 936 1609 1359 1347 1132 1826 1602 1187 1335 1465 1265 1377 1958 2959 3206 3397 3158 2939 2829 2997 3060 2040 2763 3205 3099 2630 2354 2216
1 85 516 443 760 1010 564 414 9 10 296 203 92 604 1317 956 1756 1491 1439 1388 1872 1692 1413 994 1174 1416 1675 1634 2179 2595 2810 2812 2890 2912 2862 2928 3091 2849 3051 3112 3028 2912 2926 1491
293 75 28 443 127 98 239 135 211 65 97 20 92 720 1115 1323 1748 1691 1533 1854 1968 1480 1246 1251 1208 1732 2007 2570 2420 2445 2733 2906 2837 2669 2848 2943 2794 2827 2854 2624 2628 2277 1951 1725
0 0 105 696 778 584 217 203 245 183 1 50 82 314 1128 709 1541 2015 2325 2579 1764 1297 1249 1531 1788 2008 2120 2597 2388 2395 2780 2977 2868 2870 2464 2334 2231 2590 2652 2829 1503 1477 629 1064
0 5 58 296 163 61 239 141 95 164 207 201 326 687 1166 2694 2744 2579 2992 2274 1699 1352 1716 1835 2152 2151 2360 2741 2883 2823 2873 3196 2684 2351 2077 1783 1378 2150 1979 2508 1351 536 76 20
CIN
-10 -0 -134 -40 -115 -58 -5 -19 -4 -10 -27 -15 -0 -13 -18 -0 -2 -5 -40 -39 -50 -31 -24 -26 -16 -5 -1 -3 -3 -1 -1 -10 -10 -11 -11 -7 -40 -39 -36 -46 -16 -7 -14 -5
-211 -134 -12 -21 -48 -127 -31 -71 -29 -74 -1 -6 -5 -0 -23 -0 -13 -9 -14 -62 -25 -102 -17 -24 -10 -2 -30 -10 -12 -6 -38 -12 -10 -8 -8 -13 -9 -45 -62 -64 -31 -1 -0 -4
-0 -0 -8 -38 -98 -51 -84 -165 -97 -34 -33 -1 -2 -7 -7 -0 -0 -38 -38 -44 -82 -141 -0 -62 -17 -7 -33 -16 -25 -24 -27 -44 -18 -17 -2 -9 -22 -6 -15 -10 -51 -101 -8 -3
-84 -145 -39 -223 -167 -60 -40 -27 -10 -11 -2 -11 -31 -18 -4 -5 -0 -4 -19 -14 -56 -28 -57 -135 -0 -1 -11 -16 -22 -21 -45 -21 -11 -15 -14 -6 -17 -12 -34 -54 -125 -85 -34 -0
-182 -282 -20 -31 -5 -9 -1 -5 -14 -36 -15 -93 -2 -27 -20 -0 -0 -0 -0 -0 -0 -54 -4 -27 -24 -3 -25 -3 -14 -5 -29 -24 -12 -27 -19 -11 -17 -33 -106 -22 -16 -8 -8 -4
-46 -110 -74 -49 -48 -1 -10 -22 -20 -38 -13 -82 -49 -139 -45 -1 -23 -0 -0 -0 -0 -0 -4 -26 -49 -52 -55 -29 -9 -7 -40 -30 -30 -12 -21 -10 -59 -33 -15 -16 -9 -19 -10 -18
-47 -28 -70 -44 -4 -11 -15 -32 -74 -1 -57 -4 -6 -129 -32 -5 -2 -22 -34 -0 -0 -0 -0 -0 -52 -30 -47 -22 -7 -8 -39 -36 -36 -33 -35 -32 -13 -4 -6 -3 -10 -28 -15 -33
-42 -0 -89 -76 -44 -15 -30 -131 -39 -0 -0 -4 -84 -21 -2 -13 -5 -3 -33 -44 -0 -0 -6 -0 -40 -67 -3 -3 -5 -2 -35 -43 -39 -48 -42 -50 -20 -31 -30 -5 -24 -15 -19 -68
-0 -79 -0 -43 -39 -3 -18 -10 -271 -10 -1 -9 -0 -28 -11 -1 -21 -6 -5 -37 -20 -24 -3 -19 -42 -25 -23 -14 -4 -4 -32 -32 -34 -48 -53 -34 -33 -43 -51 -13 -21 -18 -15 -11
-0 -10 -141 -26 -8 -25 -43 -37 -34 -69 -39 -3 -27 -25 -2 -0 -12 -3 -4 -8 -25 -19 -17 -12 -11 -16 -21 -40 -6 -2 -10 -16 -22 -21 -51 -50 -45 -39 -37 -6 -3 -4 -3 -11
-0 -0 -57 -33 -16 -1 -17 -65 -24 -6 -111 -113 -58 -25 -33 -7 -9 -10 -17 -5 -3 -11 -11 -1 -3 -11 -1 -2 -3 -12 -6 -11 -23 -21 -61 -60 -61 -45 -31 -26 -10 -13 -10 -6
-0 -0 -0 -10 -2 -4 -51 -209 -236 -80 -49 -9 -67 -177 -59 -9 -2 -12 -25 -33 -19 -0 -3 -1 -6 -30 -30 -8 -28 -104 -11 -12 -19 -29 -48 -41 -35 -31 -30 -30 -14 -2 -3 -1
-0 -0 -0 -0 -0 -0 -7 -80 -32 -175 -2 -8 -46 -87 -61 -141 -40 -28 -55 -54 -62 -27 -3 -63 -315 -472 -76 -32 -27 -82 -236 -198 -73 -12 -13 -14 -27 -31 -30 -9 -18 -13 -3 -0
-0 -0 -0 -0 -1 -19 -9 -1 -16 -15 -3 -4 -9 -58 -217 -26 -16 -43 -85 -86 -77 -48 -24 -134 -242 -6 -207 -46 -26 -15 -12 -5 -3 -18 -28 -36 -27 -35 -17 -7 -14 -4 -13 -15
-0 -0 -0 -0 -0 -0 -1 -31 -64 -20 -54 -0 -13 -19 -250 -428 -10 -32 -76 -103 -100 -78 -61 -21 -45 -76 -159 -121 -18 -21 -27 -37 -13 -6 -1 -12 -10 -10 -15 -40 -22 -38 -17 -33
-0 -0 -0 -0 -0 -3 -18 -19 -0 -0 -124 -0 -7 -25 -7 -128 -3 -30 -69 -92 -100 -109 -112 -97 -63 -74 -70 -31 -4 -2 -1 -1 -5 -7 -2 -20 -15 -20 -5 -3 -6 -39 -29 -5
-1 -13 -2 -2 -2 -8 -29 -8 -7 -101 -10 -0 -0 -2 -1 -5 -5 -6 -75 -86 -84 -85 -68 -106 -71 -55 -18 -2 -7 -6 -2 -0 -0 -0 -1 -3 -6 -0 -1 -0 -0 -0 -0 -0
-14 -0 -2 -2 -0 -2 -8 -21 -19 -5 -10 -22 -13 -8 -8 -5 -5 -5 -53 -93 -55 -35 -35 -15 -20 -0 -1 -0 -0 -36 -25 -22 -2 -1 -4 -1 -0 -1 -0 -0 -0 -0 -1 -3
-0 -3 -0 -0 -0 -8 -41 -47 -55 -48 -15 -26 -1 -20 -0 -5 -7 -7 -19 -91 -66 -41 -49 -31 -3 -0 -5 -1 -6 -2 -0 -7 -1 -26 -26 -21 -23 -9 -2 -0 -0 -2 -3 -3
-0 -10 -0 -0 -6 -7 -2 -36 -64 -16 -14 -44 -94 -2 -4 -7 -13 -4 -24 -79 -93 -83 -52 -12 -18 -52 -70 -16 -30 -4 -5 -7 -25 -25 -7 -6 -2 -3 -0 -0 -1 -1 -1 -1
-9 -9 -0 -0 -4 -28 -0 -17 -16 -103 -91 -143 -367 -180 -1 -7 -8 -19 -41 -71 -77 -60 -12 -36 -71 -84 -81 -59 -48 -2 -0 -4 -10 -5 -14 -2 -1 -1 -1 -1 -1 -1 -4 -2
-2 -84 -27 -1 -0 -1 -6 -17 -68 -37 -163 -137 -83 -25 -4 -5 -3 -25 -49 -76 -77 -14 -46 -78 -69 -91 -104 -67 -8 -1 -0 -1 -0 -0 -0 -0 -1 -0 -0 -0 -1 -1 -1 -0
-3 -32 -0 -0 -2 -6 -11 -14 -19 -4 -3 -360 -346 -115 -0 -13 -13 -38 -51 -68 -46 -59 -80 -86 -82 -101 -66 -72 -9 -4 -0 -1 -0 -0 -0 -1 -1 -2 -0 -0 -0 -0 -2 -30
-21 -19 -40 -28 -69 -49 -66 -40 -23 -41 -138 -210 -120 -1 -10 -3 -5 -29 -30 -37 -53 -66 -100 -78 -97 -74 -76 -34 -16 -1 -0 -0 -0 -1 -0 -1 -0 -1 -3 -11 -18 -14 -14 -35
-0 -0 -77 -12 -8 -148 -102 -77 -0 -52 -9 -355 -119 -9 -5 -195 -0 -18 -16 -10 -72 -117 -88 -84 -84 -103 -84 -30 -19 -4 -0 -0 -0 -0 -0 -0 -0 -2 -2 -8 -41 -64 -29 -73
-0 -89 -17 -1 -33 -47 -190 -241 -207 -13 -46 -172 -41 -12 -1 -4 -4 -22 -2 -45 -94 -122 -74 -108 -105 -107 -66 -6 -1 -2 -0 -0 -0 -0 -0 -2 -5 -2 -6 -13 -54 -112 -379 -478
Wind_Speed
nan nan 29 23 27 32 16 nan 7 5 21 11 12 16 nan nan 24 20 25 33 22 14 6 2 nan 4 4 4 7 9 7 6 10 7 9 9 9 10 7 7 8 8 8 7
nan nan nan nan nan 23 nan nan nan 24 nan nan 8 12 nan nan nan 26 23 nan nan nan 13 5 12 12 nan 2 8 13 9 7 9 10 10 8 8 5 8 2 10 7 8 9
nan nan nan nan nan nan nan nan nan nan nan nan 8 11 18 nan nan nan nan nan nan nan nan nan nan nan nan 4 8 12 7 9 9 11 8 6 9 8 9 7 3 7 12 11
nan 12 9 nan 39 29 14 nan 32 27 8 13 nan 4 10 nan nan nan nan nan nan nan nan nan nan nan nan 7 7 4 5 6 5 6 10 4 9 10 10 8 10 11 17 13
nan nan 29 27 16 3 4 7 24 33 nan nan nan nan 17 29 nan nan nan nan nan nan nan nan nan nan nan 9 9 9 5 4 5 2 9 1 9 10 10 8 14 10 9 10
20 24 nan nan 26 nan nan 18 30 nan nan 12 28 28 21 30 26 nan nan nan nan nan nan nan nan nan nan 12 11 6 5 1 2 1 4 5 8 11 7 8 10 10 11 9
26 nan nan nan 27 nan nan nan nan nan nan nan nan nan 26 22 33 29 nan nan nan nan nan nan nan nan 10 11 8 5 7 2 1 4 4 7 8 7 8 6 9 9 10 9
18 nan nan nan nan 15 37 nan nan nan nan nan 8 13 8 nan nan 27 nan nan nan nan nan nan nan nan 3 7 8 5 9 5 6 8 8 8 8 6 8 9 8 2 7 13
nan nan nan nan nan 9 14 22 nan nan nan nan nan 17 10 12 nan 12 29 nan 21 nan nan 15 nan 9 10 6 7 8 14 11 11 13 10 10 10 10 9 7 9 5 7 12
nan nan nan nan nan nan nan nan nan nan 11 nan nan nan 10 8 16 14 18 29 24 20 nan 16 nan 17 15 nan 14 10 16 15 15 15 16 15 15 13 7 5 10 10 12 15
nan nan nan nan nan nan nan 15 nan nan nan nan nan nan 21 21 12 12 9 15 24 22 18 17 13 15 17 18 20 17 16 14 13 13 19 17 15 14 12 10 12 13 11 12
nan nan nan nan nan nan 25 nan 27 nan nan nan nan 7 nan 26 24 13 10 8 6 14 24 16 15 20 18 15 nan 30 40 28 12 12 17 20 18 15 17 15 15 17 17 15
nan nan nan nan nan nan nan 37 nan nan nan 12 25 19 nan 25 13 13 16 15 9 3 14 18 36 32 34 16 32 19 39 26 3 16 17 20 20 18 13 18 18 18 21 22
nan nan nan nan nan nan nan nan nan nan nan nan nan nan 27 44 46 14 14 14 10 7 11 24 27 21 18 14 22 25 29 23 17 12 15 15 18 13 15 11 17 15 24 20
nan nan nan nan nan nan nan nan nan 17 nan nan nan nan nan nan 38 14 18 17 14 9 9 16 18 11 2 9 14 16 12 10 4 15 12 14 17 15 17 18 18 22 25 17
nan nan nan nan nan nan nan nan nan nan nan nan nan nan 12 25 12 23 20 21 21 15 13 9 8 10 6 2 4 1 4 8 9 15 11 17 16 18 20 20 20 22 23 17
5 6 nan nan nan nan nan nan nan nan nan nan nan 7 35 31 34 32 30 22 23 22 21 18 13 10 10 10 8 6 2 7 7 10 9 15 17 17 21 21 19 17 17 13
nan 15 13 17 7 nan nan nan nan nan nan nan nan 27 29 19 37 45 30 22 22 21 25 21 20 15 10 9 10 9 13 13 11 11 13 14 15 19 20 18 16 13 11 13
nan nan 9 11 6 nan nan nan nan nan 27 nan nan nan nan 29 29 42 36 23 20 15 22 22 20 19 12 10 10 10 13 15 14 15 15 16 18 17 16 14 12 12 11 12
nan nan 10 9 11 nan 17 22 nan nan nan 39 45 14 nan 30 21 34 35 24 19 24 21 20 23 23 17 14 11 17 19 19 16 13 12 9 9 9 8 8 9 9 9 8
22 31 14 12 13 nan nan nan nan 37 31 nan nan nan nan 15 27 37 39 22 21 19 24 27 24 19 18 15 14 19 19 17 13 8 5 5 6 8 7 6 3 4 5 6
20 34 34 26 18 17 11 nan nan 25 nan nan 5 28 31 28 15 40 38 25 23 23 28 28 22 20 17 16 16 19 19 14 9 8 5 4 5 4 3 3 4 5 5 5
nan nan 22 22 28 8 6 9 nan nan 19 28 nan 40 10 13 45 39 32 25 25 30 26 25 26 23 21 19 17 19 17 13 9 7 7 4 6 7 6 5 6 6 8 8
43 nan nan 35 24 nan 37 30 25 nan nan nan nan 9 8 23 37 26 28 26 30 28 26 26 29 27 24 23 21 18 15 11 10 10 6 5 4 4 6 7 7 7 7 8
nan nan 56 54 40 36 34 28 8 29 nan nan nan 47 15 52 33 16 17 23 26 29 24 30 28 30 27 25 23 17 15 9 10 7 6 4 1 4 5 2 5 1 2 2
nan nan nan 64 71 nan 30 44 nan 27 30 42 18 26 20 27 20 21 27 30 30 30 28 30 33 27 26 25 22 18 14 10 10 6 3 2 2 3 4 3 2 10 nan nan
Wind_Direction
nan nan 106 43 63 99 4 nan 315 32 36 48 56 1 nan nan 5 357 4 9 351 23 75 246 nan 142 279 144 177 152 157 160 120 121 101 84 87 73 83 51 23 26 56 359
nan nan nan nan nan 108 nan nan nan 97 nan nan 49 22 nan nan nan 8 13 nan nan nan 36 29 84 75 nan 242 199 156 123 54 82 92 99 120 112 129 101 114 83 24 37 11
nan nan nan nan nan nan nan nan nan nan nan nan 38 44 357 nan nan nan nan nan nan nan nan nan nan nan nan 126 107 85 69 43 60 92 112 127 127 102 79 64 72 69 41 23
nan 74 90 nan 88 95 33 nan 9 36 316 115 nan 105 72 nan nan nan nan nan nan nan nan nan nan nan nan 55 87 66 51 58 59 99 117 71 75 72 78 45 53 47 55 29
nan nan 58 63 116 167 203 89 207 258 nan nan nan nan 74 25 nan nan nan nan nan nan nan nan nan nan nan 28 33 18 14 64 115 83 110 74 90 72 46 28 29 22 16 27
10 39 nan nan 109 nan nan 235 214 nan nan 35 333 354 76 22 18 nan nan nan nan nan nan nan nan nan nan 11 24 4 330 139 167 79 68 71 57 86 99 41 29 40 26 11
143 nan nan nan 98 nan nan nan nan nan nan nan nan nan 52 14 19 14 nan nan nan nan nan nan nan nan 20 357 17 319 309 283 28 53 25 63 69 48 82 59 43 36 21 328
53 nan nan nan nan 256 264 nan nan nan nan nan 98 46 308 nan nan 359 nan nan nan nan nan nan nan nan 351 20 2 340 320 336 3 18 19 19 28 37 38 25 45 34 266 313
nan nan nan nan nan 305 298 355 nan nan nan nan nan 121 262 340 nan 8 356 nan 3 nan nan 331 nan 331 316 346 332 357 326 342 353 4 358 357 5 22 19 13 342 320 302 301
nan nan nan nan nan nan nan nan nan nan 260 nan nan nan 163 359 1 12 350 355 359 6 nan 322 nan 325 299 nan 310 335 326 343 349 350 350 354 355 355 357 329 321 318 304 318
nan nan nan nan nan nan nan 251 nan nan nan nan nan nan 124 124 352 1 30 7 355 358 1 344 312 301 298 293 289 315 316 322 327 357 346 348 344 342 336 323 313 315 303 298
nan nan nan nan nan nan 283 nan 335 nan nan nan nan 12 nan 111 87 335 307 342 346 354 353 359 315 240 287 280 nan 256 241 200 280 321 337 331 330 340 338 331 323 314 317 301
nan nan nan nan nan nan nan 324 nan nan nan 281 332 331 nan 136 63 304 322 312 327 46 353 295 261 273 158 246 260 258 282 306 11 298 323 323 329 329 330 322 319 320 295 297
nan nan nan nan nan nan nan nan nan nan nan nan nan nan 289 215 136 299 323 328 316 310 273 307 318 334 29 263 243 248 268 281 286 304 301 304 312 318 316 319 323 286 287 293
nan nan nan nan nan nan nan nan nan 195 nan nan nan nan nan nan 58 321 327 325 322 330 338 315 326 342 4 233 246 239 242 246 232 268 251 291 295 305 277 269 273 278 274 278
nan nan nan nan nan nan nan nan nan nan nan nan nan nan 280 309 14 307 313 321 320 327 341 333 345 339 346 355 256 241 162 227 216 251 238 263 261 267 283 273 268 277 286 303
185 186 nan nan nan nan nan nan nan nan nan nan nan 283 280 309 300 300 310 315 314 321 317 329 336 356 15 360 13 15 296 242 224 279 289 281 284 284 271 274 279 280 291 304
nan 156 220 187 152 nan nan nan nan nan nan nan nan 288 293 305 302 304 304 307 312 317 318 324 337 341 358 349 332 271 264 266 270 274 280 288 290 286 287 289 288 297 291 279
nan nan 204 263 275 nan nan nan nan nan 205 nan nan nan nan 294 288 293 299 307 309 318 327 329 328 319 301 312 281 295 281 283 295 278 273 275 270 268 279 285 283 279 275 281
nan nan 233 197 212 nan 223 166 nan nan nan 214 189 255 nan 279 267 284 294 295 300 314 324 325 304 312 304 299 317 286 287 293 282 285 298 286 278 273 279 273 266 274 287 297
208 200 241 245 238 nan nan nan nan 234 247 nan nan nan nan 261 265 285 290 284 289 303 313 305 299 314 310 318 314 296 298 294 289 280 274 308 303 284 283 280 290 273 284 286
196 255 206 181 232 229 218 nan nan 324 nan nan 225 199 236 209 234 270 279 277 288 293 293 309 304 297 316 302 290 295 294 293 288 291 284 300 319 327 291 298 264 291 326 340
nan nan 262 225 201 229 311 202 nan nan 301 283 nan 256 231 234 255 270 268 273 279 284 293 311 296 299 294 289 291 286 286 280 266 287 273 304 284 283 305 336 2 8 32 16
212 nan nan 249 225 nan 170 247 180 nan nan nan nan 156 234 247 257 246 248 262 265 278 291 299 296 288 283 277 277 284 286 283 281 278 271 268 283 333 26 35 47 77 43 26
nan nan 201 209 241 204 166 168 157 233 nan nan nan 70 246 207 212 256 255 257 265 274 289 289 288 281 276 272 274 280 283 282 279 263 269 291 311 44 43 131 155 327 165 102
nan nan nan 211 214 nan 202 199 nan 205 256 301 29 280 245 278 298 272 268 265 266 281 282 286 288 282 277 270 267 269 275 263 270 262 265 300 304 59 68 14 55 209 nan nan